{"data":{"norad_id":43914,"epoch":"2026-05-25T04:25:38.264160Z","epoch_age_seconds":56174,"freshness":"FRESH","line1":"1 43914U 18112F   26145.18447065 -.00000111  00000+0  31283-4 0  9991","line2":"2 43914  50.0091 321.6186 0006677 186.0721 174.0077 13.43819208363441","mean_motion":13.43819208,"eccentricity":0.0006677,"inclination_deg":50.0091,"raan_deg":321.6186,"arg_perigee_deg":186.0721,"mean_anomaly_deg":174.0077,"bstar":3.1283e-5,"rev_number":36344,"period_min":107.15727170942,"perigee_km":1090.0961857383,"apogee_km":1100.0759278083,"semimajor_km":7473.2230567733,"source":"CELESTRAK","updated_at":"2026-05-25T13:37:55.929067Z"}}